(124383) = 2001 QF167 = 2004 HK58

Discovered at Haleakala on 2001-08-24 by NEAT.

Orbit

Orbit type: Main Belt

Note: WebGL enabled browser required.

epoch2023-02-25.0
epoch JD2460000.5
perihelion date2020-10-09.38672
perihelion JD2459131.88672
argument of perihelion (°)315.48346
ascending node (°)49.13100
inclination (°)2.26179
eccentricity0.1777525
perihelion distance (AU)1.9941803
Tisserand w.r.t. Jupiter3.5
ΔV w.r.t. Earth (km/sec)8.8
semimajor axis (AU)2.4252798
mean anomaly (°)226.66660
mean daily motion (°/day)0.26095230
aphelion distance (AU)2.856
period (years)3.78
P-vector [x]0.99634555
P-vector [y]0.08514627
P-vector [z]0.00675705
Q-vector [x]-0.08003049
Q-vector [y]0.90298091
Q-vector [z]0.42216180
absolute magnitude17.14
phase slope0.15
uncertainty0
referenceMPO 745323
observations used570
oppositions15
arc length (days)8503
first opposition used2000
last opposition used2023
residual rms (arc-secs)0.71
perturbers coarse indicatorM-v
perturbers precise indicator003Ek
first observation date used2000-03-09.0
last observation date used2023-06-20.0
computer nameMPCLINUX
JD of orbit computation2456670.876837
perihelion JD uncertainty (days)3.0076E-04
argument of perihelion uncertainty (°)1.4737E-04
ascending node uncertainty (°)1.3998E-04
inclination uncertainty (°)8.5438E-06
eccentricity uncertainty 3.1774E-07
perihelion distance uncertainty (AU)6.9584E-07
Minimum Orbit Intersection Distances (in AU)
for orbit epoch: 2460000.5, reference: E2023-M76
Mercury1.63139
Venus1.26839
Earth0.99129
Mars0.58912
Jupiter2.59063
Saturn6.53162
Uranus15.6019
Neptune27.7513

Observations

572 total observations over interval: 2000 03 09.33306 – 2023 06 20.384079
These data are available for download (format description).

Date (UT) J2000 RA J2000 Dec Magn Location Ref
2000 03 09.33306 13 56 16.74 -10 04 49.6   807 – Cerro Tololo Observatory, La Serena MPS 106695
2000 03 09.35140 13 56 16.29 -10 04 47.2 23.0   807 – Cerro Tololo Observatory, La Serena MPS 106695
2000 03 09.36105 13 56 16.06 -10 04 45.7 22.8   807 – Cerro Tololo Observatory, La Serena MPS 106695
2001 08 24.51305 22 20 31.40 -15 01 41.4 19.3   608 – Haleakala-AMOS MPS 34779
2001 08 24.52350 22 20 30.83 -15 01 44.0 19.8   608 – Haleakala-AMOS MPS 34779
2001 08 24.53401 22 20 30.25 -15 01 47.1 19.6   608 – Haleakala-AMOS MPS 34779
2001 08 25.24126 22 19 53.01 -15 05 07.8 18.9   704 – Lincoln Laboratory ETS, New Mexico MPS 34779
2001 08 25.25642 22 19 52.06 -15 05 11.0 19.0   704 – Lincoln Laboratory ETS, New Mexico MPS 34779
2001 08 25.27309 22 19 51.18 -15 05 16.2 19.1   704 – Lincoln Laboratory ETS, New Mexico MPS 34779
2001 08 25.28835 22 19 50.32 -15 05 19.9 19.0   704 – Lincoln Laboratory ETS, New Mexico MPS 34779
2001 08 25.30319 22 19 49.51 -15 05 24.1 19.0   704 – Lincoln Laboratory ETS, New Mexico MPS 34779
2001 08 27.27119 22 18 04.35 -15 14 24.0 19.0   644 – Palomar Mountain/NEAT MPS 34779
2001 08 27.28189 22 18 03.73 -15 14 27.0 19.2   644 – Palomar Mountain/NEAT MPS 34779
2001 08 27.29255 22 18 03.13 -15 14 29.6 19.1   644 – Palomar Mountain/NEAT MPS 34779
2001 09 11.19646 22 05 38.96 -16 07 39.1 18.9   704 – Lincoln Laboratory ETS, New Mexico MPS 34779
2001 09 11.21060 22 05 38.27 -16 07 41.4 19.7   704 – Lincoln Laboratory ETS, New Mexico MPS 34779
2001 09 11.23929 22 05 36.98 -16 07 45.8 19.7   704 – Lincoln Laboratory ETS, New Mexico MPS 34779
2001 09 11.25354 22 05 36.36 -16 07 47.3 18.9   704 – Lincoln Laboratory ETS, New Mexico MPS 34779
2004 04 22.32526 14 56 11.66 -16 15 40.1 21.5 V 691 – Steward Observatory, Kitt Peak-Spacewatch MPS 106355
2004 04 22.35180 14 56 10.14 -16 15 34.6 20.9 V 691 – Steward Observatory, Kitt Peak-Spacewatch MPS 106355
2004 04 22.38384 14 56 08.33 -16 15 28.8 21.2 V 691 – Steward Observatory, Kitt Peak-Spacewatch MPS 106355
2004 04 28.31792 14 50 32.53 -15 55 24.6 21.8 V 291 – LPL/Spacewatch II MPS 106355
2004 04 28.32920 14 50 31.86 -15 55 22.0 21.2 V 291 – LPL/Spacewatch II MPS 106355
2004 04 28.33764 14 50 31.35 -15 55 20.6 21.7 V 291 – LPL/Spacewatch II MPS 106355
2004 05 09.26578 14 39 44.20 -15 15 08.6 20.9 V 691 – Steward Observatory, Kitt Peak-Spacewatch MPS 106695
2004 05 09.29369 14 39 42.47 -15 15 02.2 21.4 V 691 – Steward Observatory, Kitt Peak-Spacewatch MPS 106695
2004 05 09.32221 14 39 40.75 -15 14 55.5 21.4 V 691 – Steward Observatory, Kitt Peak-Spacewatch MPS 106695
2005 08 30.43519 01 42 17.57 +07 40 55.3 19.7 R 644 – Palomar Mountain/NEAT MPS 140979
2005 08 30.44584 01 42 17.65 +07 40 56.1 19.6 R 644 – Palomar Mountain/NEAT MPS 140979
2005 08 30.45676 01 42 17.73 +07 40 56.8 19.6 R 644 – Palomar Mountain/NEAT MPS 140979
2005 09 23.29544 01 36 53.65 +07 18 57.4 19.7 V 691 – Steward Observatory, Kitt Peak-Spacewatch MPS 142183
2005 09 23.31288 01 36 52.97 +07 18 55.0 19.7 V 691 – Steward Observatory, Kitt Peak-Spacewatch MPS 142183
2005 09 23.33025 01 36 52.28 +07 18 52.3 19.5 V 691 – Steward Observatory, Kitt Peak-Spacewatch MPS 142183
2005 09 24.37692 01 36 13.21 +07 16 01.2 19.4 V 703 – Catalina Sky Survey MPS 142519
2005 09 24.38341 01 36 12.96 +07 15 59.3 19.8 V 703 – Catalina Sky Survey MPS 142519
2005 09 24.38993 01 36 12.67 +07 15 58.9 19.1 V 703 – Catalina Sky Survey MPS 142519
2005 09 24.39648 01 36 12.49 +07 15 57.9 19.1 V 703 – Catalina Sky Survey MPS 142519
2005 09 24.42425 01 36 11.32 +07 15 53.2 19.2 R 644 – Palomar Mountain/NEAT MPS 143533
2005 09 24.44554 01 36 10.44 +07 15 49.5 19.2 R 644 – Palomar Mountain/NEAT MPS 143533
2005 09 24.46710 01 36 09.59 +07 15 45.5 19.3 R 644 – Palomar Mountain/NEAT MPS 143533
2005 09 27.31766 01 34 14.82 +07 07 21.2 19.8 V 691 – Steward Observatory, Kitt Peak-Spacewatch MPS 142519
2005 09 27.33497 01 34 14.04 +07 07 18.0 20.0 V 691 – Steward Observatory, Kitt Peak-Spacewatch MPS 142519
2005 09 27.35233 01 34 13.24 +07 07 14.7 20.4 V 691 – Steward Observatory, Kitt Peak-Spacewatch MPS 142519
2005 09 29.37362 01 32 44.32 +07 00 45.7 18.8 R 699 – Lowell Observatory-LONEOS MPS 142519
2005 09 29.39555 01 32 43.23 +07 00 42.3   699 – Lowell Observatory-LONEOS MPS 142519
2005 09 29.41749 01 32 42.22 +07 00 36.4   699 – Lowell Observatory-LONEOS MPS 142519
2005 09 29.43944 01 32 41.15 +07 00 33.3   699 – Lowell Observatory-LONEOS MPS 142519
2005 10 01.25931 01 31 16.88 +06 54 24.4 18.8   704 – Lincoln Laboratory ETS, New Mexico MPS 143533
2005 10 01.26987 01 31 16.33 +06 54 22.2 18.9   704 – Lincoln Laboratory ETS, New Mexico MPS 143533
2005 10 01.28048 01 31 15.85 +06 54 19.4 19.0   704 – Lincoln Laboratory ETS, New Mexico MPS 143533
2005 10 01.29107 01 31 15.23 +06 54 17.7 18.7   704 – Lincoln Laboratory ETS, New Mexico MPS 143533
2005 10 01.30165 01 31 14.78 +06 54 15.0 19.1   704 – Lincoln Laboratory ETS, New Mexico MPS 143533
2005 10 01.30773 01 31 14.55 +06 54 14.1 18.4 V G96 – Mt. Lemmon Survey MPS 143533
2005 10 01.31417 01 31 14.23 +06 54 12.8 18.3 V G96 – Mt. Lemmon Survey MPS 143533
2005 10 01.32058 01 31 13.90 +06 54 11.4 18.4 V G96 – Mt. Lemmon Survey MPS 143533
2005 10 01.32703 01 31 13.54 +06 54 10.1 18.4 V G96 – Mt. Lemmon Survey MPS 143533
2005 10 05.25203 01 27 58.77 +06 40 08.6 19.1   704 – Lincoln Laboratory ETS, New Mexico MPS 143533
2005 10 05.26301 01 27 58.15 +06 40 06.1 19.7   704 – Lincoln Laboratory ETS, New Mexico MPS 143533
2005 10 05.27400 01 27 57.51 +06 40 03.9 19.1   704 – Lincoln Laboratory ETS, New Mexico MPS 143533
2005 10 05.28501 01 27 56.94 +06 40 01.9 19.3   704 – Lincoln Laboratory ETS, New Mexico MPS 143533
2005 10 06.29793 01 27 04.46 +06 36 15.2 18.4 V 703 – Catalina Sky Survey MPS 143533
2005 10 06.30182 01 27 04.17 +06 36 15.1 18.8 R 699 – Lowell Observatory-LONEOS MPS 143533
2005 10 06.30340 01 27 04.14 +06 36 14.9 18.6 V 703 – Catalina Sky Survey MPS 143533
2005 10 06.30889 01 27 03.78 +06 36 13.1 19.0 V 703 – Catalina Sky Survey MPS 143533
2005 10 06.31446 01 27 03.45 +06 36 12.0 18.6 V 703 – Catalina Sky Survey MPS 143533
2005 10 06.32374 01 27 02.97 +06 36 08.9   699 – Lowell Observatory-LONEOS MPS 143533
2005 10 06.34569 01 27 01.74 +06 36 05.1   699 – Lowell Observatory-LONEOS MPS 143533
2005 10 06.36763 01 27 00.55 +06 35 59.6   699 – Lowell Observatory-LONEOS MPS 143533
2005 10 10.87552 01 22 59.72 +06 18 58.8 18.7 V A50 – Andrushivka Astronomical Observatory MPS 143533
2005 10 10.88302 01 22 59.26 +06 18 57.7 18.7 V A50 – Andrushivka Astronomical Observatory MPS 143533
2005 10 13.25039 01 20 50.25 +06 10 05.6 18.8   704 – Lincoln Laboratory ETS, New Mexico MPS 143533
2005 10 13.26125 01 20 49.62 +06 10 03.7 18.7   704 – Lincoln Laboratory ETS, New Mexico MPS 143533
2005 10 13.27215 01 20 48.98 +06 10 01.1 19.3   704 – Lincoln Laboratory ETS, New Mexico MPS 143533
2005 10 13.28304 01 20 48.38 +06 09 59.3 19.3   704 – Lincoln Laboratory ETS, New Mexico MPS 143533
2005 10 13.29392 01 20 47.75 +06 09 56.7 19.1   704 – Lincoln Laboratory ETS, New Mexico MPS 143533
2005 10 22.34926 01 12 43.56 +05 38 09.4 19.1 V 703 – Catalina Sky Survey MPS 145863
2005 10 22.35844 01 12 43.12 +05 38 07.3 18.7 V 703 – Catalina Sky Survey MPS 145863
2005 10 22.36763 01 12 42.66 +05 38 05.8 18.9 V 703 – Catalina Sky Survey MPS 145863
2005 10 22.37684 01 12 42.15 +05 38 03.3 18.7 V 703 – Catalina Sky Survey MPS 145863
2005 10 24.15636 01 11 13.41 +05 32 33.7 18.9 R 699 – Lowell Observatory-LONEOS MPS 145863
2005 10 24.17825 01 11 12.24 +05 32 30.2   699 – Lowell Observatory-LONEOS MPS 145863
2005 10 24.20017 01 11 11.09 +05 32 25.6   699 – Lowell Observatory-LONEOS MPS 145863
2005 10 24.22211 01 11 09.99 +05 32 22.7   699 – Lowell Observatory-LONEOS MPS 145863
2005 10 25.27567 01 10 18.33 +05 29 16.8 19.0 V G96 – Mt. Lemmon Survey MPS 145863
2005 10 25.28102 01 10 18.04 +05 29 15.9 19.0 V G96 – Mt. Lemmon Survey MPS 145863
2005 10 25.28637 01 10 17.79 +05 29 15.0 19.1 V G96 – Mt. Lemmon Survey MPS 145863
2005 10 25.29172 01 10 17.50 +05 29 14.0 19.0 V G96 – Mt. Lemmon Survey MPS 145863
2005 10 28.19680 01 08 02.18 +05 21 25.8 19.4   704 – Lincoln Laboratory ETS, New Mexico MPS 147263
